When you browse on this site, cookies collect data to enhance your experience and personalize the content and advertising you see.
Visit our Privacy Policy to learn more. By continuing to use the site, you agree to this use of cookies and data.
  • In Schweiz
  • Länderverzeichnis
  • Für 7 Tage
  • Wassertemperatur
  • Satellitenkarten
  • Wetterkarte
  • Widgets
  • user-avatar
    Anmelden

    Stündliche Wetter Plastunivka

    Heute, 23 Juli, Dienstag

    Zeit Temperatur Niederschläge Wind Luftdruck Luftfeuchtigkeit
    00:00 +21°C° 0 mm 2 m/S 744 mmHg 53%
    01:00 +20°C° 0 mm 2 m/S 744 mmHg 59%
    02:00 +20°C° 0 mm 5 m/S 744 mmHg 90%
    03:00 +19°C° 1.4 mm 4 m/S 744 mmHg 91%
    04:00 +19°C° 1.4 mm 4 m/S 743 mmHg 92%
    05:00 +19°C° 1.4 mm 3 m/S 743 mmHg 94%
    06:00 +20°C° 0.2 mm 3 m/S 743 mmHg 90%
    07:00 +20°C° 0.2 mm 2 m/S 743 mmHg 87%
    08:00 +21°C° 0.2 mm 2 m/S 743 mmHg 84%
    09:00 +23°C° 0 mm 2 m/S 743 mmHg 76%
    10:00 +24°C° 0 mm 2 m/S 743 mmHg 68%
    11:00 +26°C° 0 mm 3 m/S 743 mmHg 60%
    12:00 +26°C° 0 mm 2 m/S 743 mmHg 57%
    13:00 +27°C° 0 mm 2 m/S 743 mmHg 55%
    14:00 +27°C° 0 mm 2 m/S 743 mmHg 52%
    15:00 +27°C° 0 mm 2 m/S 743 mmHg 53%
    16:00 +26°C° 0 mm 2 m/S 743 mmHg 54%
    17:00 +26°C° 0 mm 2 m/S 743 mmHg 56%
    18:00 +24°C° 0.1 mm 2 m/S 742 mmHg 63%
    19:00 +23°C° 0.1 mm 2 m/S 742 mmHg 70%
    20:00 +20°C° 0.1 mm 2 m/S 742 mmHg 77%
    21:00 +20°C° 0 mm 2 m/S 742 mmHg 78%
    22:00 +19°C° 0 mm 2 m/S 742 mmHg 79%
    23:00 +20°C° 0 mm 1 m/S 742 mmHg 80%

    Morgen, 24 Juli, Mittwoch

    Zeit Temperatur Niederschläge Wind Luftdruck Luftfeuchtigkeit
    00:00 +19°C° 0.1 mm 2 m/S 742 mmHg 83%
    01:00 +18°C° 0.1 mm 2 m/S 742 mmHg 86%
    02:00 +18°C° 0.1 mm 2 m/S 742 mmHg 88%
    03:00 +17°C° 0.1 mm 2 m/S 741 mmHg 89%
    04:00 +17°C° 0.1 mm 2 m/S 741 mmHg 90%
    05:00 +17°C° 0.1 mm 2 m/S 741 mmHg 91%
    06:00 +18°C° 0.2 mm 2 m/S 741 mmHg 84%
    07:00 +19°C° 0.2 mm 2 m/S 741 mmHg 78%
    08:00 +22°C° 0.2 mm 1 m/S 741 mmHg 71%
    09:00 +23°C° 0.1 mm 1 m/S 741 mmHg 65%
    10:00 +24°C° 0.1 mm 1 m/S 742 mmHg 59%
    11:00 +25°C° 0.1 mm 2 m/S 742 mmHg 54%
    12:00 +26°C° 0.1 mm 1 m/S 741 mmHg 51%
    13:00 +26°C° 0.1 mm 1 m/S 741 mmHg 48%
    14:00 +27°C° 0.1 mm 1 m/S 741 mmHg 46%
    15:00 +26°C° 0.1 mm 1 m/S 741 mmHg 48%
    16:00 +26°C° 0.1 mm 1 m/S 741 mmHg 51%
    17:00 +26°C° 0.1 mm 1 m/S 740 mmHg 54%
    18:00 +24°C° 0.2 mm 1 m/S 741 mmHg 60%
    19:00 +22°C° 0.2 mm 1 m/S 741 mmHg 67%
    20:00 +21°C° 0.2 mm 1 m/S 741 mmHg 74%
    21:00 +20°C° 0.1 mm 1 m/S 741 mmHg 77%
    22:00 +19°C° 0.1 mm 1 m/S 741 mmHg 80%
    23:00 +19°C° 0.1 mm 1 m/S 741 mmHg 83%

    übermorgen, 25 Juli, Donnerstag

    Zeit Temperatur Niederschläge Wind Luftdruck Luftfeuchtigkeit
    00:00 +18°C° 0.1 mm 1 m/S 741 mmHg 85%
    01:00 +18°C° 0.1 mm 1 m/S 741 mmHg 87%
    02:00 +18°C° 0.1 mm 1 m/S 741 mmHg 90%
    03:00 +18°C° 0.1 mm 1 m/S 741 mmHg 90%
    04:00 +18°C° 0.1 mm 1 m/S 741 mmHg 90%
    05:00 +18°C° 0.1 mm 1 m/S 741 mmHg 90%
    06:00 +20°C° 0.6 mm 1 m/S 741 mmHg 84%
    07:00 +21°C° 0.6 mm 1 m/S 741 mmHg 78%
    08:00 +23°C° 0.6 mm 1 m/S 741 mmHg 72%
    09:00 +24°C° 1.6 mm 1 m/S 741 mmHg 68%
    10:00 +24°C° 1.6 mm 2 m/S 741 mmHg 64%
    11:00 +25°C° 1.6 mm 2 m/S 741 mmHg 60%
    12:00 +25°C° 1.2 mm 1 m/S 741 mmHg 59%
    13:00 +26°C° 1.2 mm 1 m/S 741 mmHg 57%
    14:00 +26°C° 1.2 mm 1 m/S 741 mmHg 56%
    15:00 +26°C° 1.3 mm 2 m/S 741 mmHg 60%
    16:00 +25°C° 1.3 mm 2 m/S 741 mmHg 64%
    17:00 +25°C° 1.3 mm 2 m/S 741 mmHg 69%
    18:00 +23°C° 0.4 mm 2 m/S 741 mmHg 73%
    19:00 +21°C° 0.4 mm 2 m/S 741 mmHg 77%
    20:00 +20°C° 0.4 mm 2 m/S 741 mmHg 80%
    21:00 +19°C° 0.5 mm 2 m/S 741 mmHg 82%
    22:00 +19°C° 0.5 mm 2 m/S 741 mmHg 84%
    23:00 +18°C° 0.5 mm 2 m/S 741 mmHg 85%

    26 Juli, Freitag

    Zeit Temperatur Niederschläge Wind Luftdruck Luftfeuchtigkeit
    00:00 +18°C° 0 mm 2 m/S 741 mmHg 87%
    01:00 +17°C° 0 mm 2 m/S 740 mmHg 88%
    02:00 +17°C° 0 mm 2 m/S 740 mmHg 90%
    03:00 +17°C° 0 mm 3 m/S 740 mmHg 91%
    04:00 +16°C° 0 mm 3 m/S 740 mmHg 92%
    05:00 +16°C° 0 mm 3 m/S 740 mmHg 92%
    06:00 +18°C° 0 mm 3 m/S 740 mmHg 88%
    07:00 +19°C° 0 mm 3 m/S 740 mmHg 83%
    08:00 +21°C° 0 mm 3 m/S 741 mmHg 79%
    09:00 +22°C° 1.1 mm 3 m/S 740 mmHg 74%
    10:00 +23°C° 1.1 mm 4 m/S 740 mmHg 70%
    11:00 +25°C° 1.1 mm 4 m/S 740 mmHg 65%
    12:00 +25°C° 1.6 mm 4 m/S 740 mmHg 65%
    13:00 +25°C° 1.6 mm 4 m/S 740 mmHg 64%
    14:00 +25°C° 1.6 mm 4 m/S 740 mmHg 63%
    15:00 +25°C° 0.7 mm 4 m/S 740 mmHg 66%
    16:00 +25°C° 0.7 mm 3 m/S 740 mmHg 68%
    17:00 +24°C° 0.7 mm 3 m/S 740 mmHg 71%
    18:00 +22°C° 0.7 mm 3 m/S 740 mmHg 75%
    19:00 +21°C° 0.7 mm 3 m/S 740 mmHg 79%
    20:00 +19°C° 0.7 mm 2 m/S 740 mmHg 83%
    21:00 +19°C° 0.4 mm 2 m/S 740 mmHg 83%
    22:00 +19°C° 0.4 mm 2 m/S 740 mmHg 84%
    23:00 +18°C° 0.4 mm 2 m/S 740 mmHg 84%

    27 Juli, Samstag

    Zeit Temperatur Niederschläge Wind Luftdruck Luftfeuchtigkeit
    00:00 +18°C° 0 mm 2 m/S 740 mmHg 86%
    01:00 +17°C° 0 mm 2 m/S 739 mmHg 87%
    02:00 +18°C° 0 mm 1 m/S 739 mmHg 89%
    03:00 +18°C° 0 mm 1 m/S 739 mmHg 89%
    04:00 +18°C° 0 mm 1 m/S 739 mmHg 89%
    05:00 +18°C° 0 mm 1 m/S 739 mmHg 90%
    06:00 +19°C° 0 mm 1 m/S 739 mmHg 84%
    07:00 +21°C° 0 mm 1 m/S 739 mmHg 79%
    08:00 +23°C° 0 mm 1 m/S 739 mmHg 73%
    09:00 +24°C° 0 mm 1 m/S 739 mmHg 67%
    10:00 +25°C° 0 mm 1 m/S 739 mmHg 61%
    11:00 +27°C° 0 mm 1 m/S 739 mmHg 54%
    12:00 +27°C° 0.1 mm 1 m/S 739 mmHg 53%
    13:00 +27°C° 0.1 mm 1 m/S 739 mmHg 51%
    14:00 +28°C° 0.1 mm 1 m/S 739 mmHg 50%
    15:00 +27°C° 0 mm 1 m/S 739 mmHg 52%
    16:00 +27°C° 0 mm 1 m/S 738 mmHg 53%
    17:00 +27°C° 0 mm 1 m/S 738 mmHg 55%
    18:00 +25°C° 0 mm 1 m/S 738 mmHg 60%
    19:00 +24°C° 0 mm 2 m/S 738 mmHg 66%
    20:00 +21°C° 0 mm 2 m/S 738 mmHg 71%
    21:00 +21°C° 0 mm 2 m/S 738 mmHg 74%
    22:00 +21°C° 0 mm 1 m/S 738 mmHg 76%
    23:00 +20°C° 0 mm 1 m/S 738 mmHg 79%

    28 Juli, Sonntag

    Zeit Temperatur Niederschläge Wind Luftdruck Luftfeuchtigkeit
    00:00 +20°C° 0 mm 1 m/S 738 mmHg 80%
    01:00 +20°C° 0 mm 1 m/S 738 mmHg 80%
    02:00 +20°C° 0 mm 1 m/S 737 mmHg 81%
    03:00 +18°C° 0 mm 0 m/S 737 mmHg 82%
    04:00 +18°C° 0 mm 0 m/S 737 mmHg 83%
    05:00 +18°C° 0 mm 0 m/S 737 mmHg 83%
    06:00 +19°C° 0 mm 0 m/S 737 mmHg 78%
    07:00 +23°C° 0 mm 1 m/S 737 mmHg 72%
    08:00 +24°C° 0 mm 1 m/S 737 mmHg 67%
    09:00 +25°C° 0.2 mm 1 m/S 737 mmHg 63%
    10:00 +27°C° 0.2 mm 1 m/S 737 mmHg 59%
    11:00 +28°C° 0.2 mm 1 m/S 737 mmHg 55%
    12:00 +28°C° 0 mm 2 m/S 737 mmHg 53%
    13:00 +28°C° 0 mm 2 m/S 736 mmHg 51%
    14:00 +29°C° 0 mm 2 m/S 736 mmHg 49%
    15:00 +28°C° 0.1 mm 3 m/S 736 mmHg 53%
    16:00 +28°C° 0.1 mm 3 m/S 736 mmHg 58%
    17:00 +27°C° 0.1 mm 3 m/S 735 mmHg 63%
    18:00 +25°C° 0.4 mm 3 m/S 736 mmHg 69%
    19:00 +22°C° 0.4 mm 4 m/S 736 mmHg 75%
    20:00 +21°C° 0.4 mm 4 m/S 736 mmHg 81%
    21:00 +19°C° 0.1 mm 4 m/S 736 mmHg 83%
    22:00 +17°C° 0.1 mm 5 m/S 736 mmHg 85%
    23:00 +16°C° 0.1 mm 5 m/S 736 mmHg 87%
    Mehr zeigen